This demonstration page uses our WeatherBlox Daily Observations layout. Learn more.

41.55636, -103.73856

Hourly Observations for December 24, 2015

Temp ( °F °C ) Dew Point ( °F °C ) Humidity (%) Winds ( mph kmh ) Pressure ( in mb ) Visibility ( mi km ) Precip ( " mm )
12:53 am 00:53 Clear 21 -6 12 -11 68 68 NW 16 26 29.74 1007 10 16.09344 0 0
1:53 am 01:53 Clear 19 -7 16 -9 86 86 W 9 15 29.85 1011 10 16.09344 0 0
2:53 am 02:53 Clear 19 -7 16 -9 86 86 WNW 8 13 29.88 1012 10 16.09344 0 0
3:53 am 03:53 Clear 18 -8 12 -11 79 79 Calm 29.94 1014 10 16.09344 0 0
4:53 am 04:53 Clear 14 -10 10 -12 85 85 NNW 6 9 29.97 1015 10 16.09344 0 0
5:53 am 05:53 Clear 14 -10 10 -12 85 85 NNW 3 6 29.97 1015 10 16.09344 0 0
6:53 am 06:53 Clear 16 -9 9 -13 73 73 WNW 7 11 29.97 1015 10 16.09344 0 0
7:53 am 07:53 Sunny 21 -6 10 -12 63 63 WNW 10 17 29.94 1014 10 16.09344 0 0
8:53 am 08:53 Sunny 25 -4 10 -12 54 54 WNW 12 19 29.94 1014 10 16.09344 0 0
9:53 am 09:53 Sunny 28 -2 12 -11 51 51 W 20 31 29.91 1013 10 16.09344 0 0
10:53 am 10:53 Sunny 32 0 14 -10 47 47 WNW 21 33 29.85 1011 10 16.09344 0 0
11:53 am 11:53 Sunny 34 1 12 -11 41 41 WNW 16 26 29.85 1011 10 16.09344 0 0
12:53 pm 12:53 Sunny 36 2 12 -11 38 38 W 20 31 29.8 1009 10 16.09344 0 0
1:53 pm 13:53 Sunny 36 2 12 -11 38 38 W 14 22 29.8 1009 10 16.09344 0 0
2:53 pm 14:53 Sunny 34 1 14 -10 44 44 W 9 15 29.85 1011 10 16.09344 0 0
3:53 pm 15:53 Sunny 34 1 12 -11 41 41 W 12 19 29.88 1012 10 16.09344 0 0
4:53 pm 16:53 Clear 28 -2 10 -12 47 47 W 14 22 29.94 1014 10 16.09344 0 0
5:53 pm 17:53 Clear 27 -3 9 -13 46 46 W 8 13 29.97 1015 10 16.09344 0 0
6:53 pm 18:53 Clear 25 -4 9 -13 50 50 SSW 9 15 30.03 1017 10 16.09344 0 0
7:53 pm 19:53 Clear 19 -7 7 -14 58 58 SE 7 11 30.12 1020 10 16.09344 0 0
8:53 pm 20:53 Clear 12 -11 3 -16 67 67 ENE 5 7 30.18 1022 10 16.09344 0 0
9:53 pm 21:53 Clear 12 -11 3 -16 67 67 E 7 11 30.18 1022 10 16.09344 0 0
10:53 pm 22:53 Clear 10 -12 1 -17 67 67 E 9 15 30.24 1024 10 16.09344 0 0
11:53 pm 23:53 Clear 12 -11 1 -17 62 62 E 8 13 30.18 1022 10 16.09344 0 0

Powered by AerisWeather